Location: Chillicothe
(39.7950°N, 93.5520°W)
Time: 10:55:09
(UTC-05:00)

Explorer 7 - All Passes

Search period start: 15 October 2019 00:00
Search period end: 25 October 2019 00:00
Orbit: 485 x 680 km, 50.3° (Epoch: 14 October)

Date Brightness Start Highest point End Pass type
(mag) Time Alt. Az. Time Alt. Az. Time Alt. Az.
15 Oct - 12:41:46 10° S 12:44:03 16° SE 12:46:21 10° E daylight
15 Oct - 14:20:23 10° WSW 14:24:06 70° NNW 14:27:56 10° NE daylight
15 Oct - 16:02:09 10° WNW 16:05:08 21° NNW 16:08:13 10° NE daylight
15 Oct - 17:43:51 10° NW 17:46:43 19° N 17:49:41 10° NE daylight
15 Oct - 19:24:05 10° NW 19:27:59 43° NNE 19:32:07 10° E visible
15 Oct - 21:04:37 10° WNW 21:08:29 36° SW 21:12:34 10° SSE visible
16 Oct - 12:45:40 10° SSW 12:48:51 27° SE 12:52:04 10° ENE daylight
16 Oct - 14:25:35 10° WSW 14:29:11 44° NNW 14:32:52 10° NE daylight
16 Oct - 16:07:40 10° NW 16:10:25 19° N 16:13:15 10° NE daylight
16 Oct - 17:48:53 10° NW 17:51:59 21° NNE 17:55:12 10° ENE daylight
16 Oct - 19:29:01 10° NW 19:33:04 64° NNE 19:37:21 10° ESE visible
16 Oct - 21:10:05 10° W 21:13:20 22° SW 21:16:44 10° S visible
17 Oct - 12:50:07 10° SSW 12:53:43 47° SE 12:57:22 10° ENE daylight
17 Oct - 14:30:56 10° W 14:34:19 31° NNW 14:37:46 10° NE daylight
17 Oct - 16:13:06 10° NW 16:15:43 17° N 16:18:26 10° NE daylight
17 Oct - 17:53:51 10° NW 17:57:13 26° NNE 18:00:44 10° ENE daylight
17 Oct - 19:34:00 10° WNW 19:38:04 81° SW 19:42:24 10° SE visible
17 Oct - 21:16:12 10° WSW 21:18:08 13° SW 21:20:07 10° SSW visible
18 Oct - 11:18:02 10° SE 11:18:45 10° SE 11:19:28 10° ESE daylight
18 Oct - 12:54:55 10° SW 12:58:40 83° SE 13:02:27 10° NE daylight
18 Oct - 14:36:25 10° WNW 14:39:31 24° NNW 14:42:41 10° NE daylight
18 Oct - 16:18:22 10° NW 16:21:02 17° N 16:23:45 10° NE daylight
18 Oct - 17:58:46 10° NW 18:02:23 34° NNE 18:06:12 10° E daylight
18 Oct - 19:39:05 10° WNW 19:43:01 49° SW 19:47:12 10° SE visible
19 Oct - 11:20:49 10° S 11:23:31 19° SE 11:26:13 10° E daylight
19 Oct - 12:59:58 10° WSW 13:03:41 59° NNW 13:07:25 10° NE daylight
19 Oct - 14:41:56 10° WNW 14:44:46 20° NNW 14:47:39 10° NE daylight
19 Oct - 16:23:31 10° NW 16:26:19 19° N 16:29:13 10° ENE daylight
19 Oct - 18:03:40 10° NW 18:07:31 48° NNE 18:11:33 10° ESE daylight
19 Oct - 19:44:20 10° WNW 19:47:54 29° SW 19:51:39 10° SSE visible
20 Oct - 11:24:58 10° SSW 11:28:21 32° SE 11:31:44 10° ENE daylight
20 Oct - 13:05:14 10° W 13:08:46 38° NNW 13:12:20 10° NE daylight
20 Oct - 14:47:26 10° NW 14:50:03 18° N 14:52:42 10° NE daylight
20 Oct - 16:28:31 10° NW 16:31:35 22° NNE 16:34:45 10° ENE daylight
20 Oct - 18:08:36 10° NW 18:12:33 74° NNE 18:16:44 10° ESE daylight
20 Oct - 19:49:58 10° W 19:52:45 18° SW 19:55:37 10° S visible
21 Oct - 11:29:33 10° SW 11:33:15 57° SE 11:36:56 10° ENE daylight
21 Oct - 13:10:38 10° W 13:13:55 28° NNW 13:17:13 10° NE daylight
21 Oct - 14:52:49 10° NW 14:55:21 17° N 14:57:55 10° NE daylight
21 Oct - 16:33:27 10° NW 16:36:47 27° NNE 16:40:16 10° E daylight
21 Oct - 18:13:36 10° WNW 18:17:32 69° SW 18:21:42 10° SE daylight
22 Oct - 09:56:22 10° SSE 09:58:12 13° SE 10:00:00 10° ESE daylight
22 Oct - 11:34:26 10° WSW 11:38:13 83° NW 11:41:59 10° NE daylight
22 Oct - 13:16:08 10° WNW 13:19:08 22° NNW 13:22:08 10° NE daylight
22 Oct - 14:58:03 10° NW 15:00:39 17° N 15:03:17 10° NE daylight
22 Oct - 16:38:20 10° NW 16:41:57 36° NNE 16:45:42 10° E daylight
22 Oct - 18:18:45 10° WNW 18:22:28 40° SW 18:26:23 10° SSE daylight
23 Oct - 09:59:56 10° S 10:03:00 23° SE 10:05:59 10° E daylight
23 Oct - 11:39:34 10° WSW 11:43:14 51° NNW 11:46:55 10° NE daylight
23 Oct - 13:21:40 10° WNW 13:24:23 19° N 13:27:07 10° NE daylight
23 Oct - 15:03:08 10° NW 15:05:55 19° NNE 15:08:47 10° ENE daylight
23 Oct - 16:43:14 10° NW 16:47:02 54° NNE 16:51:00 10° ESE daylight
23 Oct - 18:24:06 10° W 18:27:20 24° SW 18:30:42 10° S daylight
24 Oct - 10:04:15 10° SSW 10:07:51 39° SE 10:11:23 10° ENE daylight
24 Oct - 11:44:51 10° W 11:48:21 34° NNW 11:51:48 10° NE daylight
24 Oct - 13:27:08 10° NW 13:29:40 17° N 13:32:12 10° NE daylight
24 Oct - 15:08:06 10° NW 15:11:10 23° NNE 15:14:19 10° ENE daylight
24 Oct - 16:48:11 10° NW 16:52:03 85° NE 16:56:07 10° SE daylight
24 Oct - 18:30:01 10° W 18:32:09 14° SW 18:34:20 10° SSW daylight
